Location: Zagreb
(45.8000°N, 16.0000°E)
Time: 08:36:39
(UTC+02:00)

Courier 1B - Pass Details

Date: 13 August 2020
Orbit: 962 x 1209 km, 28.3° (Epoch: 27 September)

Event Time Altitude Azimuth Distance (km) Brightness Sun altitude
Rises 20:08:21 0° 239° (WSW) 3,999 11.3 -1.1°
Reaches altitude 10° 20:12:08 10° 222° (SW) 2,994 10.3 -1.7°
Maximum altitude 20:16:55 19° 181° (S) 2,347 9.3 -2.4°
Drops below altitude 10° 20:21:33 10° 139° (SE) 2,870 9.4 -3.2°
Enters shadow 20:23:55 - 127° (SE) 3,455 9.7 -3.6°
Sets 20:25:04 0° 122° (ESE) 3,777 - -3.7°
